owner,sensor,date,latitude,longitude,vertical_datum,sea_water_temperature,qcFlag 
DISL,ioos:station:DISL:MBLA:1,2010-12-01T00:02:00Z,30.4367,-88.0117,0.5,16.33,2 
DISL,ioos:station:DISL:MBLA:1,2010-12-01T00:05:00Z,30.4367,-88.0117,0.5,16.3,2 
DISL,ioos:station:DISL:MBLA:1,2010-12-01T00:07:00Z,30.4367,-88.0117,0.5,16.25,2 
DISL,ioos:station:DISL:MBLA:1,2010-12-01T00:10:00Z,30.4367,-88.0117,0.5,16.21,2 
DISL,ioos:station:DISL:MBLA:1,2010-12-01T00:12:00Z,30.4367,-88.0117,0.5,16.17,2 
DISL,ioos:station:DISL:MBLA:1,2010-12-01T00:15:00Z,30.4367,-88.0117,0.5,16.15,2 
DISL,ioos:station:DISL:MBLA:1,2010-12-01T01:03:00Z,30.4367,-88.0117,0.5,16.23,2 
DISL,ioos:station:DISL:MBLA:1,2010-12-01T01:05:00Z,30.4367,-88.0117,0.5,16.2,2 
DISL,ioos:station:DISL:MBLA:1,2010-12-01T01:07:00Z,30.4367,-88.0117,0.5,16.17,2 
DISL,ioos:station:DISL:MBLA:1,2010-12-01T01:10:00Z,30.4367,-88.0117,0.5,16.15,2 
DISL,ioos:station:DISL:MBLA:1,2010-12-01T01:12:00Z,30.4367,-88.0117,0.5,16.12,2 
DISL,ioos:station:DISL:MBLA:1,2010-12-01T01:15:00Z,30.4367,-88.0117,0.5,16.09,2 
DISL,ioos:station:DISL:MBLA:1,2010-12-01T02:03:00Z,30.4367,-88.0117,0.5,16.08,2 
DISL,ioos:station:DISL:MBLA:1,2010-12-01T02:05:00Z,30.4367,-88.0117,0.5,15.99,2 
DISL,ioos:station:DISL:MBLA:1,2010-12-01T02:07:00Z,30.4367,-88.0117,0.5,15.96,2 
DISL,ioos:station:DISL:MBLA:1,2010-12-01T02:10:00Z,30.4367,-88.0117,0.5,15.95,2 
DISL,ioos:station:DISL:MBLA:1,2010-12-01T02:12:00Z,30.4367,-88.0117,0.5,15.94,2 
DISL,ioos:station:DISL:MBLA:1,2010-12-01T02:15:00Z,30.4367,-88.0117,0.5,15.93,2 
DISL,ioos:station:DISL:MBLA:1,2010-12-01T03:02:00Z,30.4367,-88.0117,0.5,15.84,2 
DISL,ioos:station:DISL:MBLA:1,2010-12-01T03:05:00Z,30.4367,-88.0117,0.5,15.86,2 
DISL,ioos:station:DISL:MBLA:1,2010-12-01T03:08:00Z,30.4367,-88.0117,0.5,15.84,2 
DISL,ioos:station:DISL:MBLA:1,2010-12-01T03:10:00Z,30.4367,-88.0117,0.5,15.83,2 
DISL,ioos:station:DISL:MBLA:1,2010-12-01T03:13:00Z,30.4367,-88.0117,0.5,15.82,2 
DISL,ioos:station:DISL:MBLA:1,2010-12-01T03:16:00Z,30.4367,-88.0117,0.5,15.83,2 
DISL,ioos:station:DISL:MBLA:1,2010-12-01T04:02:00Z,30.4367,-88.0117,0.5,15.97,2 
DISL,ioos:station:DISL:MBLA:1,2010-12-01T04:05:00Z,30.4367,-88.0117,0.5,15.88,2 
DISL,ioos:station:DISL:MBLA:1,2010-12-01T04:07:00Z,30.4367,-88.0117,0.5,15.82,2 
DISL,ioos:station:DISL:MBLA:1,2010-12-01T04:10:00Z,30.4367,-88.0117,0.5,15.81,2 
DISL,ioos:station:DISL:MBLA:1,2010-12-01T04:12:00Z,30.4367,-88.0117,0.5,15.77,2 
DISL,ioos:station:DISL:MBLA:1,2010-12-01T04:15:00Z,30.4367,-88.0117,0.5,15.76,2 
DISL,ioos:station:DISL:MBLA:1,2010-12-01T05:02:00Z,30.4367,-88.0117,0.5,15.69,2 
DISL,ioos:station:DISL:MBLA:1,2010-12-01T05:05:00Z,30.4367,-88.0117,0.5,15.67,2 
DISL,ioos:station:DISL:MBLA:1,2010-12-01T05:07:00Z,30.4367,-88.0117,0.5,15.68,2 
DISL,ioos:station:DISL:MBLA:1,2010-12-01T05:10:00Z,30.4367,-88.0117,0.5,15.64,2 
DISL,ioos:station:DISL:MBLA:1,2010-12-01T05:12:00Z,30.4367,-88.0117,0.5,15.6,2 
DISL,ioos:station:DISL:MBLA:1,2010-12-01T05:15:00Z,30.4367,-88.0117,0.5,15.56,2 
DISL,ioos:station:DISL:MBLA:1,2010-12-01T06:03:00Z,30.4367,-88.0117,0.5,15.69,2 
DISL,ioos:station:DISL:MBLA:1,2010-12-01T06:05:00Z,30.4367,-88.0117,0.5,15.68,2 
DISL,ioos:station:DISL:MBLA:1,2010-12-01T06:08:00Z,30.4367,-88.0117,0.5,15.62,2 
DISL,ioos:station:DISL:MBLA:1,2010-12-01T06:10:00Z,30.4367,-88.0117,0.5,15.62,2 
DISL,ioos:station:DISL:MBLA:1,2010-12-01T06:13:00Z,30.4367,-88.0117,0.5,15.61,2 
DISL,ioos:station:DISL:MBLA:1,2010-12-01T06:16:00Z,30.4367,-88.0117,0.5,15.6,2 
DISL,ioos:station:DISL:MBLA:1,2010-12-01T07:03:00Z,30.4367,-88.0117,0.5,15.16,2 
DISL,ioos:station:DISL:MBLA:1,2010-12-01T07:05:00Z,30.4367,-88.0117,0.5,15.15,2 
DISL,ioos:station:DISL:MBLA:1,2010-12-01T07:07:00Z,30.4367,-88.0117,0.5,15.15,2 
DISL,ioos:station:DISL:MBLA:1,2010-12-01T07:10:00Z,30.4367,-88.0117,0.5,15.12,2 
DISL,ioos:station:DISL:MBLA:1,2010-12-01T07:12:00Z,30.4367,-88.0117,0.5,15.14,2 
DISL,ioos:station:DISL:MBLA:1,2010-12-01T07:15:00Z,30.4367,-88.0117,0.5,15.11,2 
DISL,ioos:station:DISL:MBLA:1,2010-12-01T08:03:00Z,30.4367,-88.0117,0.5,15.14,2 
DISL,ioos:station:DISL:MBLA:1,2010-12-01T08:05:00Z,30.4367,-88.0117,0.5,15.14,2 
DISL,ioos:station:DISL:MBLA:1,2010-12-01T08:08:00Z,30.4367,-88.0117,0.5,15.15,2 
DISL,ioos:station:DISL:MBLA:1,2010-12-01T08:10:00Z,30.4367,-88.0117,0.5,15.15,2 
DISL,ioos:station:DISL:MBLA:1,2010-12-01T08:13:00Z,30.4367,-88.0117,0.5,15.15,2 
DISL,ioos:station:DISL:MBLA:1,2010-12-01T08:15:00Z,30.4367,-88.0117,0.5,15.14,2 
DISL,ioos:station:DISL:MBLA:1,2010-12-01T09:02:00Z,30.4367,-88.0117,0.5,15.23,2 
DISL,ioos:station:DISL:MBLA:1,2010-12-01T09:05:00Z,30.4367,-88.0117,0.5,15.18,2 
DISL,ioos:station:DISL:MBLA:1,2010-12-01T09:07:00Z,30.4367,-88.0117,0.5,15.21,2 
DISL,ioos:station:DISL:MBLA:1,2010-12-01T09:10:00Z,30.4367,-88.0117,0.5,15.16,2 
DISL,ioos:station:DISL:MBLA:1,2010-12-01T09:12:00Z,30.4367,-88.0117,0.5,15.14,2 
DISL,ioos:station:DISL:MBLA:1,2010-12-01T09:16:00Z,30.4367,-88.0117,0.5,15.09,2 
DISL,ioos:station:DISL:MBLA:1,2010-12-01T10:03:00Z,30.4367,-88.0117,0.5,15.03,2 
DISL,ioos:station:DISL:MBLA:1,2010-12-01T10:05:00Z,30.4367,-88.0117,0.5,15.0,2 
DISL,ioos:station:DISL:MBLA:1,2010-12-01T10:08:00Z,30.4367,-88.0117,0.5,14.99,2 
DISL,ioos:station:DISL:MBLA:1,2010-12-01T10:10:00Z,30.4367,-88.0117,0.5,14.98,2 
DISL,ioos:station:DISL:MBLA:1,2010-12-01T10:13:00Z,30.4367,-88.0117,0.5,14.97,2 
DISL,ioos:station:DISL:MBLA:1,2010-12-01T10:16:00Z,30.4367,-88.0117,0.5,14.93,2 
DISL,ioos:station:DISL:MBLA:1,2010-12-01T11:02:00Z,30.4367,-88.0117,0.5,15.0,2 
DISL,ioos:station:DISL:MBLA:1,2010-12-01T11:05:00Z,30.4367,-88.0117,0.5,14.97,2 
DISL,ioos:station:DISL:MBLA:1,2010-12-01T11:07:00Z,30.4367,-88.0117,0.5,14.93,2 
DISL,ioos:station:DISL:MBLA:1,2010-12-01T11:10:00Z,30.4367,-88.0117,0.5,14.87,2 
DISL,ioos:station:DISL:MBLA:1,2010-12-01T11:13:00Z,30.4367,-88.0117,0.5,14.87,2 
DISL,ioos:station:DISL:MBLA:1,2010-12-01T11:15:00Z,30.4367,-88.0117,0.5,14.85,2 
DISL,ioos:station:DISL:MBLA:1,2010-12-01T12:03:00Z,30.4367,-88.0117,0.5,14.96,2 
DISL,ioos:station:DISL:MBLA:1,2010-12-01T12:05:00Z,30.4367,-88.0117,0.5,14.88,2 
DISL,ioos:station:DISL:MBLA:1,2010-12-01T12:08:00Z,30.4367,-88.0117,0.5,14.75,2 
DISL,ioos:station:DISL:MBLA:1,2010-12-01T12:10:00Z,30.4367,-88.0117,0.5,14.7,2 
DISL,ioos:station:DISL:MBLA:1,2010-12-01T12:13:00Z,30.4367,-88.0117,0.5,14.69,2 
DISL,ioos:station:DISL:MBLA:1,2010-12-01T12:15:00Z,30.4367,-88.0117,0.5,14.68,2 
DISL,ioos:station:DISL:MBLA:1,2010-12-01T16:39:00Z,30.4367,-88.0117,0.5,15.34,2 
DISL,ioos:station:DISL:MBLA:1,2010-12-01T16:42:00Z,30.4367,-88.0117,0.5,15.32,2 
DISL,ioos:station:DISL:MBLA:1,2010-12-01T16:46:00Z,30.4367,-88.0117,0.5,15.3,2 
DISL,ioos:station:DISL:MBLA:1,2010-12-01T16:49:00Z,30.4367,-88.0117,0.5,15.34,2 
DISL,ioos:station:DISL:MBLA:1,2010-12-01T17:03:00Z,30.4367,-88.0117,0.5,15.11,2 
DISL,ioos:station:DISL:MBLA:1,2010-12-01T17:05:00Z,30.4367,-88.0117,0.5,14.95,2 
DISL,ioos:station:DISL:MBLA:1,2010-12-01T17:08:00Z,30.4367,-88.0117,0.5,14.66,2 
DISL,ioos:station:DISL:MBLA:1,2010-12-01T17:10:00Z,30.4367,-88.0117,0.5,14.5,2 
DISL,ioos:station:DISL:MBLA:1,2010-12-01T17:13:00Z,30.4367,-88.0117,0.5,14.07,2 
DISL,ioos:station:DISL:MBLA:1,2010-12-01T17:15:00Z,30.4367,-88.0117,0.5,13.78,2 
DISL,ioos:station:DISL:MBLA:1,2010-12-01T18:02:00Z,30.4367,-88.0117,0.5,14.98,2 
DISL,ioos:station:DISL:MBLA:1,2010-12-01T18:05:00Z,30.4367,-88.0117,0.5,14.94,2 
DISL,ioos:station:DISL:MBLA:1,2010-12-01T18:07:00Z,30.4367,-88.0117,0.5,14.53,2 
DISL,ioos:station:DISL:MBLA:1,2010-12-01T18:10:00Z,30.4367,-88.0117,0.5,14.46,2 
DISL,ioos:station:DISL:MBLA:1,2010-12-01T18:12:00Z,30.4367,-88.0117,0.5,13.81,2 
DISL,ioos:station:DISL:MBLA:1,2010-12-01T18:15:00Z,30.4367,-88.0117,0.5,14.03,2 
DISL,ioos:station:DISL:MBLA:1,2010-12-01T19:02:00Z,30.4367,-88.0117,0.5,14.92,2 
DISL,ioos:station:DISL:MBLA:1,2010-12-01T19:05:00Z,30.4367,-88.0117,0.5,14.82,2 
DISL,ioos:station:DISL:MBLA:1,2010-12-01T19:08:00Z,30.4367,-88.0117,0.5,14.25,2 
DISL,ioos:station:DISL:MBLA:1,2010-12-01T19:10:00Z,30.4367,-88.0117,0.5,14.11,2 
DISL,ioos:station:DISL:MBLA:1,2010-12-01T19:12:00Z,30.4367,-88.0117,0.5,13.9,2 
DISL,ioos:station:DISL:MBLA:1,2010-12-01T19:15:00Z,30.4367,-88.0117,0.5,14.21,2 
DISL,ioos:station:DISL:MBLA:1,2010-12-01T20:02:00Z,30.4367,-88.0117,0.5,14.87,2 
DISL,ioos:station:DISL:MBLA:1,2010-12-01T20:05:00Z,30.4367,-88.0117,0.5,14.65,2 
DISL,ioos:station:DISL:MBLA:1,2010-12-01T20:07:00Z,30.4367,-88.0117,0.5,13.89,2 
DISL,ioos:station:DISL:MBLA:1,2010-12-01T20:10:00Z,30.4367,-88.0117,0.5,14.15,2 
DISL,ioos:station:DISL:MBLA:1,2010-12-01T20:12:00Z,30.4367,-88.0117,0.5,14.25,2 
DISL,ioos:station:DISL:MBLA:1,2010-12-01T20:15:00Z,30.4367,-88.0117,0.5,14.25,2 
DISL,ioos:station:DISL:MBLA:1,2010-12-01T21:18:00Z,30.4367,-88.0117,0.5,10.09,2 
DISL,ioos:station:DISL:MBLA:1,2010-12-01T21:22:00Z,30.4367,-88.0117,0.5,11.54,2 
DISL,ioos:station:DISL:MBLA:1,2010-12-01T21:27:00Z,30.4367,-88.0117,0.5,12.33,2 
DISL,ioos:station:DISL:MBLA:1,2010-12-01T21:29:00Z,30.4367,-88.0117,0.5,11.9,2 
DISL,ioos:station:DISL:MBLA:1,2010-12-01T21:32:00Z,30.4367,-88.0117,0.5,11.52,2 
DISL,ioos:station:DISL:MBLA:1,2010-12-01T21:35:00Z,30.4367,-88.0117,0.5,11.56,2 
DISL,ioos:station:DISL:MBLA:1,2010-12-01T21:38:00Z,30.4367,-88.0117,0.5,11.57,2 
DISL,ioos:station:DISL:MBLA:1,2010-12-01T21:40:00Z,30.4367,-88.0117,0.5,11.55,2 
DISL,ioos:station:DISL:MBLA:1,2010-12-01T22:03:00Z,30.4367,-88.0117,0.5,12.26,2 
DISL,ioos:station:DISL:MBLA:1,2010-12-01T22:05:00Z,30.4367,-88.0117,0.5,12.2,2 
DISL,ioos:station:DISL:MBLA:1,2010-12-01T22:07:00Z,30.4367,-88.0117,0.5,11.67,2 
DISL,ioos:station:DISL:MBLA:1,2010-12-01T22:10:00Z,30.4367,-88.0117,0.5,11.53,2 
DISL,ioos:station:DISL:MBLA:1,2010-12-01T22:12:00Z,30.4367,-88.0117,0.5,11.49,2 
DISL,ioos:station:DISL:MBLA:1,2010-12-01T22:15:00Z,30.4367,-88.0117,0.5,11.48,2 
DISL,ioos:station:DISL:MBLA:1,2010-12-01T23:03:00Z,30.4367,-88.0117,0.5,12.43,2 
DISL,ioos:station:DISL:MBLA:1,2010-12-01T23:05:00Z,30.4367,-88.0117,0.5,11.74,2 
DISL,ioos:station:DISL:MBLA:1,2010-12-01T23:07:00Z,30.4367,-88.0117,0.5,11.25,2 
DISL,ioos:station:DISL:MBLA:1,2010-12-01T23:10:00Z,30.4367,-88.0117,0.5,11.81,2 
DISL,ioos:station:DISL:MBLA:1,2010-12-01T23:12:00Z,30.4367,-88.0117,0.5,11.27,2 
DISL,ioos:station:DISL:MBLA:1,2010-12-01T23:15:00Z,30.4367,-88.0117,0.5,11.25,2 
DISL,ioos:station:DISL:MBLA:1,2010-12-04T00:02:00Z,30.4367,-88.0117,0.5,12.53,2 
DISL,ioos:station:DISL:MBLA:1,2010-12-04T00:05:00Z,30.4367,-88.0117,0.5,12.48,2 
DISL,ioos:station:DISL:MBLA:1,2010-12-04T00:07:00Z,30.4367,-88.0117,0.5,12.03,2 
DISL,ioos:station:DISL:MBLA:1,2010-12-04T00:10:00Z,30.4367,-88.0117,0.5,11.45,2 
DISL,ioos:station:DISL:MBLA:1,2010-12-04T00:12:00Z,30.4367,-88.0117,0.5,11.4,2 
DISL,ioos:station:DISL:MBLA:1,2010-12-04T00:15:00Z,30.4367,-88.0117,0.5,11.32,2 
DISL,ioos:station:DISL:MBLA:1,2010-12-04T01:03:00Z,30.4367,-88.0117,0.5,12.58,2 
DISL,ioos:station:DISL:MBLA:1,2010-12-04T01:05:00Z,30.4367,-88.0117,0.5,12.25,2 
DISL,ioos:station:DISL:MBLA:1,2010-12-04T01:07:00Z,30.4367,-88.0117,0.5,12.06,2 
DISL,ioos:station:DISL:MBLA:1,2010-12-04T01:10:00Z,30.4367,-88.0117,0.5,11.38,2 
DISL,ioos:station:DISL:MBLA:1,2010-12-04T01:12:00Z,30.4367,-88.0117,0.5,11.28,2 
DISL,ioos:station:DISL:MBLA:1,2010-12-04T01:15:00Z,30.4367,-88.0117,0.5,11.14,2 
DISL,ioos:station:DISL:MBLA:1,2010-12-04T02:03:00Z,30.4367,-88.0117,0.5,12.47,2 
DISL,ioos:station:DISL:MBLA:1,2010-12-04T02:05:00Z,30.4367,-88.0117,0.5,12.23,2 
DISL,ioos:station:DISL:MBLA:1,2010-12-04T02:07:00Z,30.4367,-88.0117,0.5,12.11,2 
DISL,ioos:station:DISL:MBLA:1,2010-12-04T02:10:00Z,30.4367,-88.0117,0.5,11.77,2 
DISL,ioos:station:DISL:MBLA:1,2010-12-04T02:12:00Z,30.4367,-88.0117,0.5,11.23,2 
DISL,ioos:station:DISL:MBLA:1,2010-12-04T02:15:00Z,30.4367,-88.0117,0.5,11.15,2 
DISL,ioos:station:DISL:MBLA:1,2010-12-04T03:03:00Z,30.4367,-88.0117,0.5,12.37,2 
DISL,ioos:station:DISL:MBLA:1,2010-12-04T03:05:00Z,30.4367,-88.0117,0.5,12.53,2 
DISL,ioos:station:DISL:MBLA:1,2010-12-04T03:07:00Z,30.4367,-88.0117,0.5,12.32,2 
DISL,ioos:station:DISL:MBLA:1,2010-12-04T03:10:00Z,30.4367,-88.0117,0.5,11.5,2 
DISL,ioos:station:DISL:MBLA:1,2010-12-04T03:12:00Z,30.4367,-88.0117,0.5,11.34,2 
DISL,ioos:station:DISL:MBLA:1,2010-12-04T03:15:00Z,30.4367,-88.0117,0.5,11.08,2 
DISL,ioos:station:DISL:MBLA:1,2010-12-04T04:03:00Z,30.4367,-88.0117,0.5,12.62,2 
DISL,ioos:station:DISL:MBLA:1,2010-12-04T04:05:00Z,30.4367,-88.0117,0.5,12.52,2 
DISL,ioos:station:DISL:MBLA:1,2010-12-04T04:07:00Z,30.4367,-88.0117,0.5,12.11,2 
DISL,ioos:station:DISL:MBLA:1,2010-12-04T04:10:00Z,30.4367,-88.0117,0.5,11.6,2 
DISL,ioos:station:DISL:MBLA:1,2010-12-04T04:12:00Z,30.4367,-88.0117,0.5,11.32,2 
DISL,ioos:station:DISL:MBLA:1,2010-12-04T04:15:00Z,30.4367,-88.0117,0.5,10.99,2 
DISL,ioos:station:DISL:MBLA:1,2010-12-04T05:03:00Z,30.4367,-88.0117,0.5,12.63,2 
DISL,ioos:station:DISL:MBLA:1,2010-12-04T05:05:00Z,30.4367,-88.0117,0.5,12.57,2 
DISL,ioos:station:DISL:MBLA:1,2010-12-04T05:07:00Z,30.4367,-88.0117,0.5,12.53,2 
DISL,ioos:station:DISL:MBLA:1,2010-12-04T05:10:00Z,30.4367,-88.0117,0.5,11.93,2 
DISL,ioos:station:DISL:MBLA:1,2010-12-04T05:12:00Z,30.4367,-88.0117,0.5,11.31,2 
DISL,ioos:station:DISL:MBLA:1,2010-12-04T05:15:00Z,30.4367,-88.0117,0.5,11.06,2 
DISL,ioos:station:DISL:MBLA:1,2010-12-04T06:03:00Z,30.4367,-88.0117,0.5,12.88,2 
DISL,ioos:station:DISL:MBLA:1,2010-12-04T06:05:00Z,30.4367,-88.0117,0.5,12.61,2 
DISL,ioos:station:DISL:MBLA:1,2010-12-04T06:08:00Z,30.4367,-88.0117,0.5,12.48,2 
DISL,ioos:station:DISL:MBLA:1,2010-12-04T06:10:00Z,30.4367,-88.0117,0.5,11.94,2 
DISL,ioos:station:DISL:MBLA:1,2010-12-04T06:13:00Z,30.4367,-88.0117,0.5,11.34,2 
DISL,ioos:station:DISL:MBLA:1,2010-12-04T06:15:00Z,30.4367,-88.0117,0.5,11.2,2 
DISL,ioos:station:DISL:MBLA:1,2010-12-04T07:03:00Z,30.4367,-88.0117,0.5,12.85,2 
DISL,ioos:station:DISL:MBLA:1,2010-12-04T07:05:00Z,30.4367,-88.0117,0.5,12.76,2 
DISL,ioos:station:DISL:MBLA:1,2010-12-04T07:07:00Z,30.4367,-88.0117,0.5,12.26,2 
DISL,ioos:station:DISL:MBLA:1,2010-12-04T07:10:00Z,30.4367,-88.0117,0.5,12.1,2 
DISL,ioos:station:DISL:MBLA:1,2010-12-04T07:12:00Z,30.4367,-88.0117,0.5,11.58,2 
DISL,ioos:station:DISL:MBLA:1,2010-12-04T07:15:00Z,30.4367,-88.0117,0.5,11.39,2 
DISL,ioos:station:DISL:MBLA:1,2010-12-04T08:03:00Z,30.4367,-88.0117,0.5,13.1,2 
DISL,ioos:station:DISL:MBLA:1,2010-12-04T08:05:00Z,30.4367,-88.0117,0.5,12.66,2 
DISL,ioos:station:DISL:MBLA:1,2010-12-04T08:08:00Z,30.4367,-88.0117,0.5,12.5,2 
DISL,ioos:station:DISL:MBLA:1,2010-12-04T08:10:00Z,30.4367,-88.0117,0.5,12.2,2 
DISL,ioos:station:DISL:MBLA:1,2010-12-04T08:13:00Z,30.4367,-88.0117,0.5,11.77,2 
DISL,ioos:station:DISL:MBLA:1,2010-12-04T08:15:00Z,30.4367,-88.0117,0.5,11.33,2 
DISL,ioos:station:DISL:MBLA:1,2010-12-04T09:03:00Z,30.4367,-88.0117,0.5,12.79,2 
DISL,ioos:station:DISL:MBLA:1,2010-12-04T09:05:00Z,30.4367,-88.0117,0.5,12.69,2 
DISL,ioos:station:DISL:MBLA:1,2010-12-04T09:07:00Z,30.4367,-88.0117,0.5,12.61,2 
DISL,ioos:station:DISL:MBLA:1,2010-12-04T09:10:00Z,30.4367,-88.0117,0.5,12.38,2 
DISL,ioos:station:DISL:MBLA:1,2010-12-04T09:12:00Z,30.4367,-88.0117,0.5,11.54,2 
DISL,ioos:station:DISL:MBLA:1,2010-12-04T09:15:00Z,30.4367,-88.0117,0.5,11.31,2 
DISL,ioos:station:DISL:MBLA:1,2010-12-04T10:03:00Z,30.4367,-88.0117,0.5,12.72,2 
DISL,ioos:station:DISL:MBLA:1,2010-12-04T10:05:00Z,30.4367,-88.0117,0.5,12.64,2 
DISL,ioos:station:DISL:MBLA:1,2010-12-04T10:07:00Z,30.4367,-88.0117,0.5,12.57,2 
DISL,ioos:station:DISL:MBLA:1,2010-12-04T10:10:00Z,30.4367,-88.0117,0.5,12.26,2 
DISL,ioos:station:DISL:MBLA:1,2010-12-04T10:12:00Z,30.4367,-88.0117,0.5,11.67,2 
DISL,ioos:station:DISL:MBLA:1,2010-12-04T10:15:00Z,30.4367,-88.0117,0.5,11.27,2 
DISL,ioos:station:DISL:MBLA:1,2010-12-04T11:03:00Z,30.4367,-88.0117,0.5,12.62,2 
DISL,ioos:station:DISL:MBLA:1,2010-12-04T11:05:00Z,30.4367,-88.0117,0.5,12.59,2 
DISL,ioos:station:DISL:MBLA:1,2010-12-04T11:07:00Z,30.4367,-88.0117,0.5,12.78,2 
DISL,ioos:station:DISL:MBLA:1,2010-12-04T11:10:00Z,30.4367,-88.0117,0.5,12.02,2 
DISL,ioos:station:DISL:MBLA:1,2010-12-04T11:12:00Z,30.4367,-88.0117,0.5,11.89,2 
DISL,ioos:station:DISL:MBLA:1,2010-12-04T11:15:00Z,30.4367,-88.0117,0.5,11.35,2 
DISL,ioos:station:DISL:MBLA:1,2010-12-04T12:03:00Z,30.4367,-88.0117,0.5,12.79,2 
DISL,ioos:station:DISL:MBLA:1,2010-12-04T12:05:00Z,30.4367,-88.0117,0.5,12.55,2 
DISL,ioos:station:DISL:MBLA:1,2010-12-04T12:07:00Z,30.4367,-88.0117,0.5,12.51,2 
DISL,ioos:station:DISL:MBLA:1,2010-12-04T12:10:00Z,30.4367,-88.0117,0.5,11.98,2 
DISL,ioos:station:DISL:MBLA:1,2010-12-04T12:12:00Z,30.4367,-88.0117,0.5,11.86,2 
DISL,ioos:station:DISL:MBLA:1,2010-12-04T12:15:00Z,30.4367,-88.0117,0.5,11.61,2 
DISL,ioos:station:DISL:MBLA:1,2010-12-04T13:03:00Z,30.4367,-88.0117,0.5,13.01,2 
DISL,ioos:station:DISL:MBLA:1,2010-12-04T13:05:00Z,30.4367,-88.0117,0.5,12.67,2 
DISL,ioos:station:DISL:MBLA:1,2010-12-04T13:07:00Z,30.4367,-88.0117,0.5,12.61,2 
DISL,ioos:station:DISL:MBLA:1,2010-12-04T13:10:00Z,30.4367,-88.0117,0.5,12.38,2 
DISL,ioos:station:DISL:MBLA:1,2010-12-04T13:12:00Z,30.4367,-88.0117,0.5,12.32,2 
DISL,ioos:station:DISL:MBLA:1,2010-12-04T13:15:00Z,30.4367,-88.0117,0.5,11.89,2 
DISL,ioos:station:DISL:MBLA:1,2010-12-04T14:03:00Z,30.4367,-88.0117,0.5,12.97,2 
DISL,ioos:station:DISL:MBLA:1,2010-12-04T14:05:00Z,30.4367,-88.0117,0.5,12.83,2 
DISL,ioos:station:DISL:MBLA:1,2010-12-04T14:07:00Z,30.4367,-88.0117,0.5,12.65,2 
DISL,ioos:station:DISL:MBLA:1,2010-12-04T14:10:00Z,30.4367,-88.0117,0.5,12.51,2 
DISL,ioos:station:DISL:MBLA:1,2010-12-04T14:12:00Z,30.4367,-88.0117,0.5,12.25,2 
DISL,ioos:station:DISL:MBLA:1,2010-12-04T14:15:00Z,30.4367,-88.0117,0.5,12.12,2 
DISL,ioos:station:DISL:MBLA:1,2010-12-04T15:03:00Z,30.4367,-88.0117,0.5,12.96,2 
DISL,ioos:station:DISL:MBLA:1,2010-12-04T15:05:00Z,30.4367,-88.0117,0.5,12.71,2 
DISL,ioos:station:DISL:MBLA:1,2010-12-04T15:07:00Z,30.4367,-88.0117,0.5,12.58,2 
DISL,ioos:station:DISL:MBLA:1,2010-12-04T15:10:00Z,30.4367,-88.0117,0.5,12.49,2 
DISL,ioos:station:DISL:MBLA:1,2010-12-04T15:12:00Z,30.4367,-88.0117,0.5,12.5,2 
DISL,ioos:station:DISL:MBLA:1,2010-12-04T15:15:00Z,30.4367,-88.0117,0.5,12.55,2 
DISL,ioos:station:DISL:MBLA:1,2010-12-04T16:03:00Z,30.4367,-88.0117,0.5,12.64,2 
DISL,ioos:station:DISL:MBLA:1,2010-12-04T16:05:00Z,30.4367,-88.0117,0.5,12.63,2 
DISL,ioos:station:DISL:MBLA:1,2010-12-04T16:07:00Z,30.4367,-88.0117,0.5,12.47,2 
DISL,ioos:station:DISL:MBLA:1,2010-12-04T16:10:00Z,30.4367,-88.0117,0.5,12.49,2 
DISL,ioos:station:DISL:MBLA:1,2010-12-04T16:12:00Z,30.4367,-88.0117,0.5,12.57,2 
DISL,ioos:station:DISL:MBLA:1,2010-12-04T16:15:00Z,30.4367,-88.0117,0.5,12.74,2 
DISL,ioos:station:DISL:MBLA:1,2010-12-04T17:03:00Z,30.4367,-88.0117,0.5,12.93,2 
DISL,ioos:station:DISL:MBLA:1,2010-12-04T17:05:00Z,30.4367,-88.0117,0.5,12.65,2 
DISL,ioos:station:DISL:MBLA:1,2010-12-04T17:07:00Z,30.4367,-88.0117,0.5,12.56,2 
DISL,ioos:station:DISL:MBLA:1,2010-12-04T17:10:00Z,30.4367,-88.0117,0.5,12.66,2 
DISL,ioos:station:DISL:MBLA:1,2010-12-04T17:12:00Z,30.4367,-88.0117,0.5,13.0,2 
DISL,ioos:station:DISL:MBLA:1,2010-12-04T17:15:00Z,30.4367,-88.0117,0.5,13.07,2 
DISL,ioos:station:DISL:MBLA:1,2010-12-04T18:03:00Z,30.4367,-88.0117,0.5,13.01,2 
DISL,ioos:station:DISL:MBLA:1,2010-12-04T18:05:00Z,30.4367,-88.0117,0.5,12.72,2 
DISL,ioos:station:DISL:MBLA:1,2010-12-04T18:07:00Z,30.4367,-88.0117,0.5,12.85,2 
DISL,ioos:station:DISL:MBLA:1,2010-12-04T18:10:00Z,30.4367,-88.0117,0.5,13.13,2 
DISL,ioos:station:DISL:MBLA:1,2010-12-04T18:12:00Z,30.4367,-88.0117,0.5,13.19,2 
DISL,ioos:station:DISL:MBLA:1,2010-12-04T18:15:00Z,30.4367,-88.0117,0.5,13.18,2 
DISL,ioos:station:DISL:MBLA:1,2010-12-04T19:02:00Z,30.4367,-88.0117,0.5,12.91,2 
DISL,ioos:station:DISL:MBLA:1,2010-12-04T19:05:00Z,30.4367,-88.0117,0.5,13.06,2 
DISL,ioos:station:DISL:MBLA:1,2010-12-04T19:07:00Z,30.4367,-88.0117,0.5,12.92,2 
DISL,ioos:station:DISL:MBLA:1,2010-12-04T19:10:00Z,30.4367,-88.0117,0.5,13.2,2 
DISL,ioos:station:DISL:MBLA:1,2010-12-04T19:12:00Z,30.4367,-88.0117,0.5,13.28,2 
DISL,ioos:station:DISL:MBLA:1,2010-12-04T19:15:00Z,30.4367,-88.0117,0.5,13.22,2 
DISL,ioos:station:DISL:MBLA:1,2010-12-04T20:02:00Z,30.4367,-88.0117,0.5,12.65,2 
DISL,ioos:station:DISL:MBLA:1,2010-12-04T20:05:00Z,30.4367,-88.0117,0.5,12.6,2 
DISL,ioos:station:DISL:MBLA:1,2010-12-04T20:07:00Z,30.4367,-88.0117,0.5,13.09,2 
DISL,ioos:station:DISL:MBLA:1,2010-12-04T20:10:00Z,30.4367,-88.0117,0.5,13.23,2 
DISL,ioos:station:DISL:MBLA:1,2010-12-04T20:12:00Z,30.4367,-88.0117,0.5,13.27,2 
DISL,ioos:station:DISL:MBLA:1,2010-12-04T20:15:00Z,30.4367,-88.0117,0.5,13.29,2 
DISL,ioos:station:DISL:MBLA:1,2010-12-04T21:02:00Z,30.4367,-88.0117,0.5,12.65,2 
DISL,ioos:station:DISL:MBLA:1,2010-12-04T21:05:00Z,30.4367,-88.0117,0.5,12.61,2 
DISL,ioos:station:DISL:MBLA:1,2010-12-04T21:07:00Z,30.4367,-88.0117,0.5,13.06,2 
DISL,ioos:station:DISL:MBLA:1,2010-12-04T21:10:00Z,30.4367,-88.0117,0.5,13.18,2 
DISL,ioos:station:DISL:MBLA:1,2010-12-04T21:12:00Z,30.4367,-88.0117,0.5,13.18,2 
DISL,ioos:station:DISL:MBLA:1,2010-12-04T21:15:00Z,30.4367,-88.0117,0.5,13.17,2 
DISL,ioos:station:DISL:MBLA:1,2010-12-04T22:02:00Z,30.4367,-88.0117,0.5,12.73,2 
DISL,ioos:station:DISL:MBLA:1,2010-12-04T22:05:00Z,30.4367,-88.0117,0.5,12.76,2 
DISL,ioos:station:DISL:MBLA:1,2010-12-04T22:07:00Z,30.4367,-88.0117,0.5,12.89,2 
DISL,ioos:station:DISL:MBLA:1,2010-12-04T22:10:00Z,30.4367,-88.0117,0.5,12.95,2 
DISL,ioos:station:DISL:MBLA:1,2010-12-04T22:12:00Z,30.4367,-88.0117,0.5,13.0,2 
DISL,ioos:station:DISL:MBLA:1,2010-12-04T22:15:00Z,30.4367,-88.0117,0.5,13.01,2 
DISL,ioos:station:DISL:MBLA:1,2010-12-04T23:03:00Z,30.4367,-88.0117,0.5,12.76,2 
DISL,ioos:station:DISL:MBLA:1,2010-12-04T23:05:00Z,30.4367,-88.0117,0.5,12.79,2 
DISL,ioos:station:DISL:MBLA:1,2010-12-04T23:07:00Z,30.4367,-88.0117,0.5,12.82,2 
DISL,ioos:station:DISL:MBLA:1,2010-12-04T23:10:00Z,30.4367,-88.0117,0.5,12.74,2 
DISL,ioos:station:DISL:MBLA:1,2010-12-04T23:12:00Z,30.4367,-88.0117,0.5,12.75,2 
DISL,ioos:station:DISL:MBLA:1,2010-12-04T23:15:00Z,30.4367,-88.0117,0.5,12.74,2 
DISL,ioos:station:DISL:MBLA:1,2010-12-05T00:02:00Z,30.4367,-88.0117,0.5,12.85,2 
DISL,ioos:station:DISL:MBLA:1,2010-12-05T00:05:00Z,30.4367,-88.0117,0.5,12.84,2 
DISL,ioos:station:DISL:MBLA:1,2010-12-05T00:07:00Z,30.4367,-88.0117,0.5,12.79,2 
DISL,ioos:station:DISL:MBLA:1,2010-12-05T00:10:00Z,30.4367,-88.0117,0.5,12.57,2 
DISL,ioos:station:DISL:MBLA:1,2010-12-05T00:12:00Z,30.4367,-88.0117,0.5,12.58,2 
DISL,ioos:station:DISL:MBLA:1,2010-12-05T00:15:00Z,30.4367,-88.0117,0.5,12.59,2 
DISL,ioos:station:DISL:MBLA:1,2010-12-05T01:02:00Z,30.4367,-88.0117,0.5,12.83,2 
DISL,ioos:station:DISL:MBLA:1,2010-12-05T01:05:00Z,30.4367,-88.0117,0.5,12.81,2 
DISL,ioos:station:DISL:MBLA:1,2010-12-05T01:07:00Z,30.4367,-88.0117,0.5,12.73,2 
DISL,ioos:station:DISL:MBLA:1,2010-12-05T01:10:00Z,30.4367,-88.0117,0.5,12.63,2 
DISL,ioos:station:DISL:MBLA:1,2010-12-05T01:12:00Z,30.4367,-88.0117,0.5,12.55,2 
DISL,ioos:station:DISL:MBLA:1,2010-12-05T01:15:00Z,30.4367,-88.0117,0.5,12.53,2 
DISL,ioos:station:DISL:MBLA:1,2010-12-05T02:02:00Z,30.4367,-88.0117,0.5,12.79,2 
DISL,ioos:station:DISL:MBLA:1,2010-12-05T02:05:00Z,30.4367,-88.0117,0.5,12.78,2 
DISL,ioos:station:DISL:MBLA:1,2010-12-05T02:08:00Z,30.4367,-88.0117,0.5,12.73,2 
DISL,ioos:station:DISL:MBLA:1,2010-12-05T02:11:00Z,30.4367,-88.0117,0.5,12.66,2 
DISL,ioos:station:DISL:MBLA:1,2010-12-05T02:13:00Z,30.4367,-88.0117,0.5,12.56,2 
DISL,ioos:station:DISL:MBLA:1,2010-12-05T02:16:00Z,30.4367,-88.0117,0.5,12.51,2 
DISL,ioos:station:DISL:MBLA:1,2010-12-05T03:02:00Z,30.4367,-88.0117,0.5,12.79,2 
DISL,ioos:station:DISL:MBLA:1,2010-12-05T03:05:00Z,30.4367,-88.0117,0.5,12.77,2 
DISL,ioos:station:DISL:MBLA:1,2010-12-05T03:07:00Z,30.4367,-88.0117,0.5,12.71,2 
DISL,ioos:station:DISL:MBLA:1,2010-12-05T03:10:00Z,30.4367,-88.0117,0.5,12.53,2 
DISL,ioos:station:DISL:MBLA:1,2010-12-05T03:12:00Z,30.4367,-88.0117,0.5,12.52,2 
DISL,ioos:station:DISL:MBLA:1,2010-12-05T03:15:00Z,30.4367,-88.0117,0.5,12.49,2 
DISL,ioos:station:DISL:MBLA:1,2010-12-05T04:03:00Z,30.4367,-88.0117,0.5,12.78,2 